CW9455 Orient NY US current weather conditions

sailwx.info

Wind from 276 at 6 knots gusting 17

Air temperature 28.9° C
Dewpoint 20.3° C

Last reported at 2020-Aug-09 20:06 UTC.
Time now 2020-Aug-09 20:37 UTC

Location: N 41°08' W 072°18'.
View on Google Maps.

See reports from other nearby stations

  
Tides and Currents Weather Stations Pressure Air Temp Water Temp Dewpoint Dewpoint Depression Visibility Wind Speed Wind Dir Waves Ship Positions
date/time (UTC)wind fromknots sea level pressurealtimeterstation pressurevisibilityair tempwater tempwave heightnotes
2020-Aug-09 20:06 276 6 gusting 17 28.9
2020-Aug-09 20:01 277 7 gusting 16 28.9
2020-Aug-09 19:56 221 6 gusting 16 28.9
2020-Aug-09 19:51 243 6 gusting 13 29.4
2020-Aug-09 19:46 256 6 gusting 13 29.4
2020-Aug-09 19:41 309 6 gusting 13 29.4
2020-Aug-09 19:36 288 7 gusting 13 28.9
2020-Aug-09 19:31 274 7 gusting 13 28.9
2020-Aug-09 19:26 257 6 gusting 13 28.9
2020-Aug-09 19:21 240 6 gusting 12 29.4
2020-Aug-09 19:16 229 6 gusting 12 28.9
2020-Aug-09 19:11 246 6 gusting 12 28.9
2020-Aug-09 19:06 262 6 gusting 13 29.4
2020-Aug-09 19:01 267 6 gusting 13 28.9
2020-Aug-09 18:56 254 7 gusting 13 28.9
2020-Aug-09 18:51 239 7 gusting 13 28.9
2020-Aug-09 18:46 281 6 gusting 12 29.4
2020-Aug-09 18:41 252 5 gusting 10 29.4
2020-Aug-09 18:36 282 5 gusting 12 29.4
2020-Aug-09 18:31 302 6 gusting 12 29.4
2020-Aug-09 18:26 224 6 gusting 11 28.9
2020-Aug-09 18:21 256 6 gusting 11 29.4
2020-Aug-09 18:16 311 6 gusting 11 28.9
2020-Aug-09 18:10 262 5 gusting 11 28.9
2020-Aug-09 18:05 290 3 gusting 10 28.9
2020-Aug-09 18:00 300 3 gusting 8 28.9
2020-Aug-09 17:55 281 4 gusting 9 28.9
2020-Aug-09 17:51 233 4 gusting 9 28.9
2020-Aug-09 17:46 227 5 gusting 9 28.3
2020-Aug-09 17:40 238 4 gusting 9 28.3
2020-Aug-09 17:35 232 4 gusting 7 28.3
2020-Aug-09 17:30 218 4 gusting 7 28.3
2020-Aug-09 17:25 269 4 gusting 7 28.3
2020-Aug-09 17:20 250 4 gusting 8 28.3
2020-Aug-09 17:15 244 5 gusting 8 28.3
2020-Aug-09 17:10 235 5 gusting 8 27.8
2020-Aug-09 17:05 240 4 gusting 8 28.3
2020-Aug-09 17:00 241 3 gusting 7 28.9
2020-Aug-09 16:55 257 2 gusting 6 28.9
2020-Aug-09 16:50 293 3 gusting 7 28.3
2020-Aug-09 16:45 259 2 gusting 7 28.3
2020-Aug-09 16:40 335 2 gusting 6 28.3
2020-Aug-09 16:35 335 2 gusting 6 28.3
2020-Aug-09 16:30 333 2 gusting 5 28.3
2020-Aug-09 16:25 341 1 gusting 5 28.3
2020-Aug-09 16:20 318 2 gusting 6 27.8
2020-Aug-09 16:15 326 2 gusting 6 27.2
2020-Aug-09 16:10 27.8
2020-Aug-09 16:05 023 3 gusting 6 27.2
2020-Aug-09 16:00 349 4 gusting 10 27.2
2020-Aug-09 15:55 005 5 gusting 10 26.7
2020-Aug-09 15:50 350 6 gusting 9 26.7
2020-Aug-09 15:45 005 5 gusting 9 26.7
2020-Aug-09 15:40 344 4 gusting 9 27.2
2020-Aug-09 15:35 010 5 gusting 10 26.7
2020-Aug-09 15:30 27.2
2020-Aug-09 15:25 019 3 gusting 7 27.2
2020-Aug-09 15:20 017 3 gusting 7 26.7
2020-Aug-09 15:15 346 3 gusting 6 26.7
2020-Aug-09 15:10 024 3 gusting 7 26.7
2020-Aug-09 15:05 355 3 gusting 9 26.7
2020-Aug-09 15:00 028 2 gusting 9 26.7
2020-Aug-09 14:55 019 2 gusting 6 26.1
2020-Aug-09 14:50 293 2 gusting 6 26.1
2020-Aug-09 14:45 339 1 gusting 6 26.1
2020-Aug-09 14:40 285 1 gusting 5 26.7
2020-Aug-09 14:35 023 2 gusting 7 26.7
2020-Aug-09 14:30 028 4 gusting 7 26.1
2020-Aug-09 14:25 030 5 gusting 8 25.6
2020-Aug-09 14:20 25.6
2020-Aug-09 14:15 355 4 gusting 10 26.1
2020-Aug-09 14:10 019 3 gusting 10 26.1
2020-Aug-09 14:05 355 3 gusting 6 26.7
2020-Aug-09 14:00 277 3 gusting 6 26.1
2020-Aug-09 13:55 348 2 gusting 6 26.7
2020-Aug-09 13:50 254 1 gusting 6 26.7
2020-Aug-09 13:45 284 3 gusting 7 26.1
2020-Aug-09 13:40 296 4 gusting 7 25.6
2020-Aug-09 13:35 342 3 gusting 6 25.6
2020-Aug-09 13:30 341 3 gusting 6 25.6
2020-Aug-09 13:25 258 3 gusting 6 25.6
2020-Aug-09 13:20 288 2 gusting 6 25.6
2020-Aug-09 13:15 263 2 gusting 6 25.6
2020-Aug-09 13:10 254 4 gusting 6 25.0
2020-Aug-09 13:05 307 4 gusting 6 25.0
2020-Aug-09 13:00 279 2 gusting 6 25.0
2020-Aug-09 12:55 296 3 gusting 8 25.0
2020-Aug-09 12:50 252 5 gusting 9 25.0
2020-Aug-09 12:45 279 5 gusting 9 24.4
2020-Aug-09 12:40 277 5 gusting 8 24.4
2020-Aug-09 12:35 251 4 gusting 8 24.4
2020-Aug-09 12:30 277 3 gusting 8 24.4
2020-Aug-09 12:25 292 4 gusting 8 24.4
2020-Aug-09 12:20 279 4 gusting 8 23.9
2020-Aug-09 12:15 276 3 gusting 8 24.4
2020-Aug-09 12:10 288 4 gusting 8 23.9
2020-Aug-09 12:05 283 4 gusting 10 23.9
2020-Aug-09 12:00 266 4 gusting 10 23.9
2020-Aug-09 11:55 288 2 gusting 6 23.9
2020-Aug-09 11:50 288 3 gusting 6 23.9
2020-Aug-09 11:45 254 3 gusting 6 23.3
2020-Aug-09 11:40 273 2 gusting 6 23.3
2020-Aug-09 11:35 275 1 gusting 6 23.3
2020-Aug-09 11:30 252 2 gusting 6 23.3
2020-Aug-09 11:25 300 3 gusting 6 23.3
2020-Aug-09 11:20 299 3 gusting 6 22.8
2020-Aug-09 11:15 277 3 gusting 7 22.8
2020-Aug-09 11:10 287 4 gusting 7 22.8
2020-Aug-09 11:05 252 3 gusting 7 22.8
2020-Aug-09 11:00 282 2 gusting 7 22.8
2020-Aug-09 10:55 271 1 gusting 6 22.2
2020-Aug-09 10:50 273 1 gusting 6 22.8
2020-Aug-09 10:45 257 0 gusting 6 22.2
2020-Aug-09 10:40 291 22.2
2020-Aug-09 10:35 291 22.2
2020-Aug-09 10:25 291 22.2
2020-Aug-09 10:20 291 22.2
2020-Aug-09 10:15 291 22.2
2020-Aug-09 10:10 292 22.2
2020-Aug-09 10:05 291 0 gusting 3 22.2
2020-Aug-09 10:00 291 1 gusting 6 22.2
2020-Aug-09 09:55 291 1 gusting 6 22.2
2020-Aug-09 09:50 311 0 gusting 4 22.2
2020-Aug-09 09:45 311 22.2
2020-Aug-09 09:40 311 22.2
2020-Aug-09 09:35 313 22.2
2020-Aug-09 09:30 313 22.2
2020-Aug-09 09:25 297 22.2
2020-Aug-09 09:20 297 22.2
2020-Aug-09 09:15 296 22.2
2020-Aug-09 09:10 296 0 gusting 4 22.2
2020-Aug-09 09:05 327 0 gusting 3 22.2
2020-Aug-09 08:59 327 0 gusting 2 22.2
2020-Aug-09 08:54 329 22.2
2020-Aug-09 08:49 349 22.2
2020-Aug-09 08:44 350 0 gusting 4 22.2
2020-Aug-09 08:39 350 0 gusting 4 22.2
2020-Aug-09 08:35 355 0 gusting 4 22.2
2020-Aug-09 08:29 321 22.2
2020-Aug-09 08:24 348 0 gusting 4 22.2
2020-Aug-09 08:19 344 0 gusting 4 22.2
2020-Aug-09 08:14 342 22.2
2020-Aug-09 08:09 323 22.2
2020-Aug-09 08:04 314 22.2
2020-Aug-09 07:59 283 22.2
2020-Aug-09 07:54 281 0 gusting 2 22.2
2020-Aug-09 07:49 280 0 gusting 2 22.2
2020-Aug-09 07:44 277 0 gusting 3 22.2
2020-Aug-09 07:39 277 0 gusting 5 22.2
2020-Aug-09 07:34 268 0 gusting 5 22.2
2020-Aug-09 07:29 270 0 gusting 5 22.2
2020-Aug-09 07:24 261 1 gusting 6 22.2
2020-Aug-09 07:19 261 1 gusting 6 22.2
2020-Aug-09 07:14 254 1 gusting 3 22.2
2020-Aug-09 07:09 253 1 gusting 4 22.2
2020-Aug-09 07:04 254 1 gusting 6 22.2
2020-Aug-09 06:59 244 1 gusting 6 22.2
2020-Aug-09 06:54 242 1 gusting 4 22.2
2020-Aug-09 06:49 240 1 gusting 5 22.2
2020-Aug-09 06:44 228 0 gusting 5 22.2
2020-Aug-09 06:39 240 0 gusting 3 22.2
2020-Aug-09 06:34 240 1 gusting 4 22.2
2020-Aug-09 06:29 241 1 gusting 4 22.2
2020-Aug-09 06:24 241 0 gusting 3 22.2
2020-Aug-09 06:19 244 22.2
2020-Aug-09 06:14 250 0 gusting 4 22.2
2020-Aug-09 06:09 250 0 gusting 4 22.2
2020-Aug-09 06:04 259 0 gusting 3 22.2
2020-Aug-09 05:59 253 0 gusting 3 22.2
2020-Aug-09 05:54 253 22.2
2020-Aug-09 05:49 254 0 gusting 2 22.2
2020-Aug-09 05:44 254 0 gusting 2 22.2
2020-Aug-09 05:39 255 0 gusting 3 22.2
2020-Aug-09 05:34 254 0 gusting 4 22.2
2020-Aug-09 05:29 254 1 gusting 6 22.2
2020-Aug-09 05:24 254 1 gusting 6 22.2
2020-Aug-09 05:18 264 0 gusting 3 22.2
2020-Aug-09 05:13 264 0 gusting 5 22.2
2020-Aug-09 05:08 263 0 gusting 5 22.2
2020-Aug-09 05:03 261 0 gusting 5 22.2
2020-Aug-09 04:58 261 0 gusting 5 22.2
2020-Aug-09 04:53 275 1 gusting 6 22.2
2020-Aug-09 04:48 276 2 gusting 6 22.2
2020-Aug-09 04:43 244 2 gusting 6 22.2
2020-Aug-09 04:38 246 2 gusting 6 22.2
2020-Aug-09 04:33 249 1 gusting 6 22.2
2020-Aug-09 04:28 244 0 gusting 4 22.2
2020-Aug-09 04:23 243 0 gusting 4 22.2
2020-Aug-09 04:18 244 1 gusting 6 22.2
2020-Aug-09 04:13 244 2 gusting 6 22.2
2020-Aug-09 04:08 245 2 gusting 4 22.2
2020-Aug-09 04:03 246 2 gusting 4 22.2
2020-Aug-09 03:58 247 1 gusting 4 22.2
2020-Aug-09 03:53 250 22.2
2020-Aug-09 03:48 250 0 gusting 4 22.2
2020-Aug-09 03:43 250 0 gusting 4 22.2
2020-Aug-09 03:38 250 0 gusting 4 22.2
2020-Aug-09 03:33 248 0 gusting 4 22.2
2020-Aug-09 03:28 271 0 gusting 3 22.2
2020-Aug-09 03:23 272 1 gusting 5 22.2
2020-Aug-09 03:18 272 1 gusting 6 22.2
2020-Aug-09 03:13 271 1 gusting 6 22.2
2020-Aug-09 03:08 280 1 gusting 5 22.2
2020-Aug-09 03:03 280 2 gusting 5 22.2
2020-Aug-09 02:58 281 2 gusting 6 22.2
2020-Aug-09 02:53 279 2 gusting 6 22.2
2020-Aug-09 02:48 271 1 gusting 6 22.2
2020-Aug-09 02:43 268 2 gusting 6 22.2
2020-Aug-09 02:38 275 3 gusting 6 22.2
2020-Aug-09 02:33 267 2 gusting 6 22.2
2020-Aug-09 02:28 290 1 gusting 4 22.2
2020-Aug-09 02:23 292 1 gusting 5 22.2
2020-Aug-09 02:18 292 2 gusting 6 22.2
2020-Aug-09 02:13 277 1 gusting 6 22.2
2020-Aug-09 02:08 281 2 gusting 6 22.2
2020-Aug-09 02:03 275 3 gusting 6 22.8
2020-Aug-09 01:58 246 2 gusting 6 22.8
2020-Aug-09 01:53 246 1 gusting 6 22.8
2020-Aug-09 01:48 281 2 gusting 6 22.8
2020-Aug-09 01:43 280 3 gusting 6 22.8
2020-Aug-09 01:38 249 2 gusting 6 22.8
2020-Aug-09 01:33 263 2 gusting 6 22.8
2020-Aug-09 01:28 267 2 gusting 7 22.8
2020-Aug-09 01:23 252 2 gusting 7 22.8
2020-Aug-09 01:18 248 2 gusting 6 22.8
2020-Aug-09 01:13 252 1 gusting 6 22.8
2020-Aug-09 01:08 248 2 gusting 6 22.8
2020-Aug-09 01:03 236 2 gusting 6 22.8
2020-Aug-09 00:58 240 2 gusting 6 22.8
2020-Aug-09 00:53 248 1 gusting 6 22.8
2020-Aug-09 00:48 248 1 gusting 4 22.8
2020-Aug-09 00:43 232 2 gusting 6 22.8
2020-Aug-09 00:38 231 2 gusting 6 22.8
2020-Aug-09 00:33 223 1 gusting 6 23.3
2020-Aug-09 00:28 248 0 gusting 6 23.3
2020-Aug-09 00:23 234 1 gusting 6 23.3
2020-Aug-09 00:18 240 2 gusting 6 23.3
2020-Aug-09 00:13 248 1 gusting 4 23.3
2020-Aug-09 00:08 250 0 gusting 3 23.3
2020-Aug-09 00:03 252 0 gusting 4 23.3
2020-Aug-08 23:58 251 0 gusting 4 23.9
2020-Aug-08 23:53 248 23.9
2020-Aug-08 23:48 248 0 gusting 3 23.9
2020-Aug-08 23:43 248 1 gusting 6 23.9
2020-Aug-08 23:38 248 1 gusting 6 23.9
2020-Aug-08 23:33 249 1 gusting 4 23.9
2020-Aug-08 23:28 254 1 gusting 6 23.9
2020-Aug-08 23:23 245 3 gusting 6 24.4
2020-Aug-08 23:18 236 3 gusting 6 24.4
2020-Aug-08 23:13 248 2 gusting 6 24.4
2020-Aug-08 23:08 229 2 gusting 6 24.4
2020-Aug-08 23:03 226 3 gusting 6 24.4
2020-Aug-08 22:57 232 2 gusting 6 24.4
2020-Aug-08 22:53 229 2 gusting 6 24.4
2020-Aug-08 22:48 227 4 gusting 6 24.4
2020-Aug-08 22:42 213 3 gusting 6 25.0
2020-Aug-08 22:37 235 2 gusting 6 25.0
2020-Aug-08 22:32 241 3 gusting 7 25.0
2020-Aug-08 22:27 209 4 gusting 7 25.0
2020-Aug-08 22:22 225 3 gusting 7 25.0
2020-Aug-08 22:17 232 3 gusting 7 25.0
2020-Aug-08 22:12 242 3 gusting 7 25.0
2020-Aug-08 22:07 217 3 gusting 7 25.6
2020-Aug-08 22:02 227 4 gusting 9 25.6
2020-Aug-08 21:57 223 5 gusting 9 25.6
2020-Aug-08 21:52 207 4 gusting 9 25.6
2020-Aug-08 21:47 213 4 gusting 9 25.6
2020-Aug-08 21:42 214 4 gusting 9 26.1
2020-Aug-08 21:37 237 4 gusting 9 26.1
2020-Aug-08 21:32 229 3 gusting 7 26.1
2020-Aug-08 21:27 252 3 gusting 7 26.1
2020-Aug-08 21:22 222 3 gusting 8 26.1
2020-Aug-08 21:17 229 2 gusting 8 26.1
2020-Aug-08 21:12 209 2 gusting 7 26.1
2020-Aug-08 21:07 217 2 gusting 6 26.1
2020-Aug-08 21:02 211 3 gusting 8 26.1
2020-Aug-08 20:57 215 3 gusting 8 26.1
2020-Aug-08 20:52 163 2 gusting 7 26.1
2020-Aug-08 20:47 230 2 gusting 6 26.1
2020-Aug-08 20:42 173 2 gusting 6 26.7
2020-Aug-08 20:37 208 3 gusting 6 26.1
2020-Aug-08 20:32 123 2 gusting 7 26.1
2020-Aug-08 20:27 196 2 gusting 7 26.7
2020-Aug-08 20:22 223 3 gusting 6 26.1
2020-Aug-08 20:17 219 3 gusting 7 26.1
2020-Aug-08 20:12 189 3 gusting 7 26.1
2020-Aug-08 20:07 236 2 gusting 7 26.7
2020-Aug-08 20:02 205 3 gusting 10 26.1
2020-Aug-08 19:57 199 3 gusting 10 26.1
2020-Aug-08 19:52 202 3 gusting 9 26.1
2020-Aug-08 19:47 235 4 gusting 9 26.1
2020-Aug-08 19:42 187 3 gusting 9 26.1
2020-Aug-08 19:37 207 4 gusting 10 26.1
2020-Aug-08 19:32 214 5 gusting 10 26.1
2020-Aug-08 19:27 210 4 gusting 8 25.6
2020-Aug-08 19:22 207 3 gusting 9 26.1
2020-Aug-08 19:17 194 4 gusting 9 26.1
2020-Aug-08 19:12 192 4 gusting 7 26.1
2020-Aug-08 19:07 198 4 gusting 8 26.1
2020-Aug-08 19:02 236 4 gusting 8 26.1
2020-Aug-08 18:57 193 5 gusting 8 25.6
2020-Aug-08 18:52 202 5 gusting 8 25.6
2020-Aug-08 18:47 180 4 gusting 9 25.6
2020-Aug-08 18:42 196 3 gusting 9 25.6
2020-Aug-08 18:37 201 3 gusting 7 25.6
2020-Aug-08 18:32 165 4 gusting 9 25.6
2020-Aug-08 18:27 188 4 gusting 10 25.6
2020-Aug-08 18:22 194 4 gusting 9 25.6
2020-Aug-08 18:17 202 4 gusting 8 25.0
2020-Aug-08 18:12 198 4 gusting 8 25.6
2020-Aug-08 18:07 219 3 gusting 6 25.0
2020-Aug-08 18:02 239 3 gusting 6 25.6
2020-Aug-08 17:57 146 3 gusting 6 25.6
2020-Aug-08 17:52 199 4 gusting 8 25.0
2020-Aug-08 17:47 182 4 gusting 8 25.0
2020-Aug-08 17:42 234 5 gusting 8 24.4
2020-Aug-08 17:37 229 5 gusting 8 24.4
2020-Aug-08 17:32 225 4 gusting 8 24.4
2020-Aug-08 17:27 199 5 gusting 9 24.4
2020-Aug-08 17:22 242 4 gusting 9 24.4
2020-Aug-08 17:17 242 3 gusting 8 24.4
2020-Aug-08 17:12 232 3 gusting 8 24.4
2020-Aug-08 17:07 219 3 gusting 8 24.4
2020-Aug-08 17:02 189 4 gusting 7 24.4
2020-Aug-08 16:57 207 4 gusting 8 24.4
2020-Aug-08 16:52 202 3 gusting 8 25.0
2020-Aug-08 16:47 249 2 gusting 6 25.0
2020-Aug-08 16:42 195 3 gusting 6 25.0
2020-Aug-08 16:37 192 3 gusting 6 24.4
2020-Aug-08 16:32 205 3 gusting 6 23.9
2020-Aug-08 16:27 205 4 gusting 6 23.9
2020-Aug-08 16:22 215 4 gusting 7 24.4
2020-Aug-08 16:17 226 4 gusting 7 23.9
2020-Aug-08 16:12 200 4 gusting 6 23.9
2020-Aug-08 16:07 227 3 gusting 6 23.9
2020-Aug-08 16:02 215 3 gusting 6 23.9
2020-Aug-08 15:57 222 3 gusting 6 24.4
2020-Aug-08 15:52 136 3 gusting 7 23.9
2020-Aug-08 15:47 184 4 gusting 7 23.9
2020-Aug-08 15:42 149 4 gusting 7 23.9
2020-Aug-08 15:36 166 3 gusting 7 24.4
2020-Aug-08 15:32 181 2 gusting 8 24.4
2020-Aug-08 15:26 190 2 gusting 8 24.4
2020-Aug-08 15:21 101 1 gusting 4 23.9
2020-Aug-08 15:16 205 0 gusting 3 23.9
2020-Aug-08 15:11 195 1 gusting 4 24.4
2020-Aug-08 15:06 171 1 gusting 5 23.9
2020-Aug-08 15:01 142 0 gusting 5 23.9
2020-Aug-08 14:56 088 1 gusting 6 23.3
2020-Aug-08 14:51 087 2 gusting 6 23.3
2020-Aug-08 14:46 074 1 gusting 6 22.8
2020-Aug-08 14:41 101 1 gusting 6 22.8
2020-Aug-08 14:36 099 1 gusting 6 22.8
2020-Aug-08 14:31 099 2 gusting 6 22.8
2020-Aug-08 14:26 098 2 gusting 5 22.8
2020-Aug-08 14:21 107 2 gusting 5 22.2
2020-Aug-08 14:16 111 3 gusting 6 22.2
2020-Aug-08 14:11 117 2 gusting 6 22.2
2020-Aug-08 14:06 137 1 gusting 5 22.8
2020-Aug-08 14:01 110 1 gusting 5 22.2
2020-Aug-08 13:56 114 1 gusting 5 22.2
2020-Aug-08 13:51 091 2 gusting 6 22.2
2020-Aug-08 13:46 119 2 gusting 6 22.2
2020-Aug-08 13:41 126 2 gusting 6 22.2
2020-Aug-08 13:36 110 2 gusting 6 22.2
2020-Aug-08 13:31 092 2 gusting 6 22.2
2020-Aug-08 13:26 101 1 gusting 6 22.2
2020-Aug-08 13:21 094 2 gusting 6 21.7
2020-Aug-08 13:16 113 1 gusting 6 21.7
2020-Aug-08 13:11 126 0 gusting 5 21.7
2020-Aug-08 13:06 137 1 gusting 5 21.7
2020-Aug-08 13:01 114 1 gusting 5 21.7
2020-Aug-08 12:56 138 0 gusting 5 21.7
2020-Aug-08 12:51 095 0 gusting 5 21.7
2020-Aug-08 12:46 161 0 gusting 3 21.7
2020-Aug-08 12:41 161 0 gusting 3 21.7
2020-Aug-08 12:36 107 0 gusting 3 21.7
2020-Aug-08 12:31 094 0 gusting 3 21.7
2020-Aug-08 12:26 086 1 gusting 3 21.7
2020-Aug-08 12:21 114 1 gusting 3 21.7
2020-Aug-08 12:16 107 0 gusting 3 21.7
2020-Aug-08 12:11 070 1 gusting 5 21.7
2020-Aug-08 12:06 099 2 gusting 6 21.7
2020-Aug-08 12:01 111 2 gusting 6 21.7
2020-Aug-08 11:56 134 2 gusting 5 21.7
2020-Aug-08 11:51 094 2 gusting 5 21.7
2020-Aug-08 11:46 101 1 gusting 5 21.7
2020-Aug-08 11:41 087 1 gusting 5 21.7
2020-Aug-08 11:36 088 1 gusting 5 21.7
2020-Aug-08 11:31 107 2 gusting 5 21.7
2020-Aug-08 11:26 122 1 gusting 5 21.7
2020-Aug-08 11:21 126 0 gusting 3 21.7
2020-Aug-08 11:16 132 0 gusting 3 21.7
2020-Aug-08 11:11 132 0 gusting 3 21.1
2020-Aug-08 11:06 132 21.1
2020-Aug-08 11:01 132 21.1
2020-Aug-08 10:56 132 21.1
2020-Aug-08 10:51 132 21.1
2020-Aug-08 10:46 132 21.1
2020-Aug-08 10:41 132 21.1
2020-Aug-08 10:36 132 21.1
2020-Aug-08 10:31 132 21.1
2020-Aug-08 10:26 132 0 gusting 2 21.1
2020-Aug-08 10:21 132 0 gusting 2 21.1
2020-Aug-08 10:16 132 0 gusting 3 21.1
2020-Aug-08 10:11 132 21.1
2020-Aug-08 10:06 133 21.1
2020-Aug-08 10:01 133 21.1
2020-Aug-08 09:56 133 21.1
2020-Aug-08 09:51 133 21.1
2020-Aug-08 09:46 141 21.1
2020-Aug-08 09:41 142 21.1
2020-Aug-08 09:36 142 21.1
2020-Aug-08 09:31 142 21.1
2020-Aug-08 09:26 142 21.1
2020-Aug-08 09:21 142 21.1
2020-Aug-08 09:15 142 21.1
2020-Aug-08 09:10 142 21.1
2020-Aug-08 09:05 142 21.1
2020-Aug-08 09:00 142 21.1
2020-Aug-08 08:55 142 21.1
2020-Aug-08 08:50 142 21.1
2020-Aug-08 08:45 142 21.1
2020-Aug-08 08:40 142 21.1
2020-Aug-08 08:35 142 21.1
2020-Aug-08 08:30 142 21.1
2020-Aug-08 08:25 142 21.1
2020-Aug-08 08:20 142 21.1
2020-Aug-08 08:15 142 21.1
2020-Aug-08 08:10 142 21.1
2020-Aug-08 08:05 142 21.1
2020-Aug-08 08:00 142 21.1
2020-Aug-08 07:55 142 21.1
2020-Aug-08 07:50 142 21.1
2020-Aug-08 07:45 142 21.7
2020-Aug-08 07:40 142 0 gusting 4 21.7
2020-Aug-08 07:35 142 0 gusting 4 21.7
2020-Aug-08 07:30 142 1 gusting 6 21.7
2020-Aug-08 07:25 143 1 gusting 6 21.7
2020-Aug-08 07:20 142 0 gusting 4 21.7
2020-Aug-08 07:15 142 0 gusting 4 21.7
2020-Aug-08 07:10 157 0 gusting 4 21.7
2020-Aug-08 07:05 126 0 gusting 6 21.7
2020-Aug-08 07:00 123 1 gusting 6 21.7
2020-Aug-08 06:55 136 0 gusting 6 21.7
2020-Aug-08 06:50 128 1 gusting 6 21.7
2020-Aug-08 06:45 126 1 gusting 6 21.7
2020-Aug-08 06:40 157 1 gusting 5 21.7
2020-Aug-08 06:30 160 1 gusting 5 21.7
2020-Aug-08 06:25 132 1 gusting 3 21.7
2020-Aug-08 06:20 142 1 gusting 3 21.7
2020-Aug-08 06:15 144 0 gusting 3 21.7
2020-Aug-08 06:10 144 1 gusting 6 21.7
2020-Aug-08 06:05 144 1 gusting 6 21.7
2020-Aug-08 05:59 165 1 gusting 6 21.7
2020-Aug-08 05:55 141 0 gusting 6 21.7
2020-Aug-08 05:50 150 1 gusting 6 21.7
2020-Aug-08 05:44 128 1 gusting 6 21.7
2020-Aug-08 05:40 106 1 gusting 6 21.7
2020-Aug-08 05:35 137 1 gusting 6 21.7
2020-Aug-08 05:30 097 0 gusting 5 21.7
2020-Aug-08 05:24 161 1 gusting 5 21.7
2020-Aug-08 05:19 130 2 gusting 7 21.7
2020-Aug-08 05:14 138 2 gusting 7 21.7
2020-Aug-08 05:09 192 3 gusting 7 21.7
2020-Aug-08 05:04 199 3 gusting 8 21.7
2020-Aug-08 04:59 165 2 gusting 8 21.7
2020-Aug-08 04:54 157 2 gusting 6 21.7
2020-Aug-08 04:49 215 3 gusting 8 21.7
2020-Aug-08 04:44 175 3 gusting 8 21.7
2020-Aug-08 04:39 187 3 gusting 7 21.7
2020-Aug-08 04:34 194 3 gusting 7 21.7
2020-Aug-08 04:29 194 2 gusting 6 21.7
2020-Aug-08 04:24 187 2 gusting 8 21.7
2020-Aug-08 04:19 136 2 gusting 9 21.7
2020-Aug-08 04:14 181 1 gusting 9 21.7
2020-Aug-08 04:09 161 1 gusting 6 21.7
2020-Aug-08 04:04 176 2 gusting 6 21.7
2020-Aug-08 03:59 123 2 gusting 6 21.7
2020-Aug-08 03:54 142 3 gusting 7 21.7
2020-Aug-08 03:49 159 2 gusting 7 21.7
2020-Aug-08 03:44 142 3 gusting 9 21.7
2020-Aug-08 03:39 145 3 gusting 9 21.7
2020-Aug-08 03:34 205 3 gusting 8 21.7
2020-Aug-08 03:29 180 2 gusting 7 21.7
2020-Aug-08 03:24 148 2 gusting 7 21.7
2020-Aug-08 03:19 115 2 gusting 7 21.7
2020-Aug-08 03:14 155 2 gusting 6 21.7
2020-Aug-08 03:09 161 1 gusting 6 21.7
2020-Aug-08 03:04 187 1 gusting 6 21.7
2020-Aug-08 02:59 155 2 gusting 7 21.7
2020-Aug-08 02:54 156 3 gusting 7 22.2
2020-Aug-08 02:49 117 3 gusting 8 22.2
2020-Aug-08 02:44 165 3 gusting 8 22.2
2020-Aug-08 02:39 157 3 gusting 10 22.2
2020-Aug-08 02:34 153 1 gusting 10 22.2
2020-Aug-08 02:29 222 0 gusting 6 22.2
2020-Aug-08 02:24 156 1 gusting 6 22.2
2020-Aug-08 02:19 123 1 gusting 6 22.2
2020-Aug-08 02:14 160 1 gusting 6 22.2
2020-Aug-08 02:09 195 2 gusting 9 22.2
2020-Aug-08 02:04 159 2 gusting 9 22.2
2020-Aug-08 01:59 164 1 gusting 7 22.2
2020-Aug-08 01:54 136 1 gusting 6 22.2
2020-Aug-08 01:49 157 1 gusting 6 22.2
2020-Aug-08 01:44 167 2 gusting 8 22.2
2020-Aug-08 01:39 150 1 gusting 8 22.2
2020-Aug-08 01:33 176 1 gusting 6 22.2
2020-Aug-08 01:29 187 1 gusting 6 22.2
2020-Aug-08 01:23 161 1 gusting 5 22.2
2020-Aug-08 01:19 133 1 gusting 5 22.2
2020-Aug-08 01:13 178 1 gusting 7 22.2
2020-Aug-08 01:08 144 2 gusting 7 22.2
2020-Aug-08 01:03 147 1 gusting 6 22.2
2020-Aug-08 00:58 198 1 gusting 6 22.2
2020-Aug-08 00:53 152 2 gusting 6 22.2
2020-Aug-08 00:48 159 2 gusting 8 22.2
2020-Aug-08 00:43 140 2 gusting 8 22.2
2020-Aug-08 00:38 181 2 gusting 8 22.2
2020-Aug-08 00:33 165 1 gusting 7 22.2
2020-Aug-08 00:28 173 1 gusting 7 22.2
2020-Aug-08 00:23 196 2 gusting 6 22.2
2020-Aug-08 00:18 131 1 gusting 6 22.2
2020-Aug-08 00:13 175 1 gusting 6 22.2
2020-Aug-08 00:08 191 1 gusting 10 22.2
2020-Aug-08 00:03 163 1 gusting 10 22.2
2020-Aug-07 23:58 151 2 gusting 8 22.2
2020-Aug-07 23:53 175 3 gusting 8 22.2
2020-Aug-07 23:48 148 1 gusting 6 22.2
2020-Aug-07 23:43 161 1 gusting 6 22.2
2020-Aug-07 23:38 166 1 gusting 6 22.2
2020-Aug-07 23:33 161 1 gusting 6 22.2
2020-Aug-07 23:28 178 0 gusting 5 22.2
2020-Aug-07 23:23 165 0 gusting 3 22.2
2020-Aug-07 23:18 150 0 gusting 5 22.2
2020-Aug-07 23:13 137 22.2
2020-Aug-07 23:08 159 22.2
2020-Aug-07 23:03 159 0 gusting 4 22.2
2020-Aug-07 22:58 172 0 gusting 4 22.2
2020-Aug-07 22:53 173 0 gusting 4 22.2
2020-Aug-07 22:48 168 0 gusting 5 22.2
2020-Aug-07 22:43 144 0 gusting 5 22.2
2020-Aug-07 22:38 146 22.2
2020-Aug-07 22:33 146 22.2
2020-Aug-07 22:28 146 0 gusting 3 22.2
2020-Aug-07 22:23 134 0 gusting 3 22.2
2020-Aug-07 22:18 133 1 gusting 5 22.2
2020-Aug-07 22:13 127 0 gusting 5 22.8
2020-Aug-07 22:08 160 0 gusting 5 22.8
2020-Aug-07 22:03 159 1 gusting 5 22.2
2020-Aug-07 21:58 172 1 gusting 5 22.8
2020-Aug-07 21:53 202 1 gusting 5 22.8
2020-Aug-07 21:48 160 1 gusting 6 22.8
2020-Aug-07 21:43 203 1 gusting 6 22.8
2020-Aug-07 21:38 198 1 gusting 6 22.8
2020-Aug-07 21:33 142 3 gusting 8 23.3
2020-Aug-07 21:28 131 4 gusting 9 23.3
2020-Aug-07 21:23 169 4 gusting 9 23.3
2020-Aug-07 21:18 138 3 gusting 9 23.3
2020-Aug-07 21:13 143 2 gusting 7 23.9
2020-Aug-07 21:07 137 3 gusting 9 23.9
2020-Aug-07 21:02 157 3 gusting 9 23.9
2020-Aug-07 20:57 148 2 gusting 6 23.9
2020-Aug-07 20:52 129 3 gusting 6 24.4
2020-Aug-07 20:47 163 4 gusting 8 24.4
2020-Aug-07 20:42 102 4 gusting 8 24.4
2020-Aug-07 20:37 148 4 gusting 9 24.4
2020-Aug-07 20:32 158 3 gusting 9 23.9
2020-Aug-07 20:28 155 3 gusting 7 23.9
2020-Aug-07 20:22 153 3 gusting 8 23.9
2020-Aug-07 20:17 153 4 gusting 9 23.9
2020-Aug-07 20:12 136 3 gusting 9 23.9
2020-Aug-07 20:07 146 3 gusting 6 23.9
2020-Aug-07 20:03 136 3 gusting 8 23.9